Flag for Sweden Weather past 2 weeks in Gothenburg, Sweden

Now
54 °F

Partly cloudy.


Feels Like: 51 °F
Forecast: 53 / 61 °F
Wind: 8 mph from Southwest

Location: Gothenburg / Save

Current Time: Aug 22, 2014 at 4:44:18 AM

Latest Report: Aug 22, 2014 at 4:20 AM


Visibility: N/A

Pressure: 29.74 "Hg

Humidity: 88%

Dew point: 50 °F

Location of GothenburgLocation

Historic Weather in Gothenburg — Graph

°F

Gothenburg temperature yesterday

Maximum temperature yesterday: 63 °F (at 2:27 PM)
Minimum temperature yesterday: 54 °F (at 7:50 AM)
Average temperature yesterday: 58 °F

Past Weeks' High & Low Weather Summary

 TemperatureHumidityPressure
High73 °F (Aug 9, 3:20 PM)100% (Aug 7, 3:50 AM)29.95 "Hg (Aug 7, 3:50 AM)
Low50 °F (Aug 16, 3:50 AM)47% (Aug 10, 3:50 PM)29.24 "Hg (Aug 18, 9:50 AM)
Average61 °F76%29.62 "Hg
* Reported Aug 7 3:20 AM — Aug 22 3:20 AM, Gothenburg, Weather by CustomWeather, © 2014

Note: Actual official high and low records may vary slightly from our data, if they occured in-between our weather recording intervals... More about our weather records

Advertising

Gothenburg weather history for previous 24 hours

 ConditionsComfort  
Time TempWeatherWind HumidityBarometerVisibility
3:20 AM
Aug 22
55 °FPartly cloudy.10 mph82%29.74 "HgN/A
2:50 AM55 °FPassing clouds.8 mph77%29.74 "HgN/A
2:20 AM55 °FClear.9 mph77%29.74 "Hg10 mi
1:50 AM55 °FPartly cloudy.9 mph77%29.74 "HgN/A
1:20 AM55 °FPartly cloudy.9 mph72%29.74 "HgN/A
12:50 AM55 °FPassing clouds.9 mph72%29.74 "HgN/A
12:20 AM55 °FPassing clouds.10 mph77%29.74 "HgN/A
11:50 PM
Aug 21
55 °FPassing clouds.8 mph72%29.74 "HgN/A
11:20 PM55 °FPassing clouds.8 mph72%29.74 "HgN/A
10:50 PM55 °FClear.8 mph67%29.74 "Hg10 mi
10:20 PM55 °FClear.9 mph67%29.74 "Hg10 mi
9:50 PM57 °FPassing clouds.10 mph63%29.74 "HgN/A
9:20 PM57 °FScattered clouds.7 mph67%29.74 "HgN/A
8:50 PM57 °FScattered clouds.9 mph67%29.74 "HgN/A
7:50 PM59 °FScattered clouds.12 mph63%29.74 "HgN/A
7:25 PM59 °FScattered clouds.13 mph63%29.74 "HgN/A
6:50 PM59 °FScattered clouds.13 mph63%29.74 "HgN/A
6:20 PM61 °FScattered clouds.14 mph59%29.74 "HgN/A
5:50 PM61 °FScattered clouds.16 mph59%29.74 "HgN/A
5:20 PM61 °FScattered clouds.18 mph59%29.74 "HgN/A
4:50 PM61 °FPartly sunny.20 mph59%29.74 "HgN/A
4:20 PM61 °FPartly sunny.21 mph63%29.74 "HgN/A
3:50 PM61 °FScattered clouds.20 mph63%29.74 "HgN/A
3:20 PM61 °FScattered clouds.20 mph63%29.74 "HgN/A
2:50 PM61 °FScattered clouds.20 mph59%29.71 "HgN/A
2:27 PM63 °FScattered clouds.20 mph59%29.71 "HgN/A
1:50 PM61 °FScattered clouds.18 mph59%29.71 "HgN/A
1:20 PM61 °FScattered clouds.21 mph59%29.71 "HgN/A
12:50 PM61 °FScattered clouds.16 mph59%29.71 "HgN/A
12:20 PM61 °FPartly sunny.17 mph63%29.71 "HgN/A
11:50 AM59 °FBroken clouds.18 mph63%29.68 "HgN/A
11:20 AM59 °FBroken clouds.18 mph63%29.68 "HgN/A
10:50 AM59 °FBroken clouds.18 mph63%29.68 "HgN/A
10:20 AM59 °FPartly sunny.17 mph68%29.68 "HgN/A
9:50 AM57 °FLight rain. Partly sunny.13 mph77%29.65 "HgN/A
9:20 AM55 °FLight rain. Partly sunny.14 mph82%29.65 "HgN/A
8:50 AM55 °FLight rain. Partly sunny.16 mph77%29.65 "HgN/A
8:20 AM55 °FPartly sunny.13 mph82%29.62 "HgN/A
7:50 AM54 °FRain showers. Broken clouds.8 mph94%29.62 "Hg3 mi
7:20 AM55 °FLight rain. Broken clouds.17 mph82%29.62 "HgN/A
6:50 AM57 °FPartly sunny.16 mph72%29.62 "HgN/A
6:20 AM57 °FPartly cloudy.20 mph72%29.62 "HgN/A
5:50 AM57 °FPassing clouds.16 mph72%29.62 "HgN/A
5:20 AM57 °FMostly cloudy.14 mph72%29.62 "HgN/A
4:50 AM57 °FOvercast.16 mph72%29.62 "HgN/A
4:20 AM57 °FMostly cloudy.15 mph77%29.62 "HgN/A
Weather by CustomWeather, © 2014

See weather overviewHow to use our weather pages